Location: Bachas
(43.2439°N, 0.9375°E)
Time: 08:32:52
(UTC+00:00)

Cosmos 1943 Rocket - Pass Details

Date: 18 February 2020
Orbit: 814 x 842 km, 71.0° (Epoch: 31 March)

Event Time Altitude Azimuth Distance (km) Brightness Sun altitude
Exits shadow 05:54:50 - 323° (NW) 3,109 4.7 -10.8°
Reaches altitude 10° 05:56:53 10° 314° (NW) 2,409 4.1 -10.5°
Maximum altitude 06:01:31 28° 257° (WSW) 1,476 3.0 -9.6°
Drops below altitude 10° 06:06:07 10° 199° (SSW) 2,397 4.5 -8.8°
Sets 06:08:49 0° 188° (S) 3,327 5.3 -8.3°
